Back to catalog

CZ-6A DEB

AliveSSO
NORAD 56257·DEBRIS·🇨🇳 China

Launched Nov 11, 2022 from Taiyuan Satellite Launch Center

Loading…

Next Passes (next 24 hours)

TLE

AgingSource: Space-Track

Epoch: Sep 9, 2026, 16:33 UTC

1 56257U 22151ABZ 26252.69017700  .00001412  00000-0  80942-3 0  9997
2 56257  98.8564 237.9404 0077989 141.1121 219.5696 14.09478718184210

Track CZ-6A DEB in real time with AllMySat

Download on the App Store